Air Resources Laboratory banner image
Air Resources Laboratory web site National Oceanic and Atmospheric Administration (NOAA)

ny zone


NYZ176-178-MAZ016-IL014-TNZ027-NJZ106-GAZ044-MD014-140100-

...Gateway Observations for Charleston International...

CITY           SKY/WX    TMP DP  RH WIND       PRES   REMARKS
Chas Airport   PTCLDY    80  65  59 NE7       30.01R
6HR MIN TEMP:  80; 6HR MAX TEMP:  87;

Seattle        MOSUNNY   74  52  46 SW9       30.18F
6HR MIN TEMP:  67; 6HR MAX TEMP:  75;

Charlotte      PTCLDY    77  55  46 N6        30.06S
6HR MIN TEMP:  77; 6HR MAX TEMP:  85;

Dallas DFW     MOSUNNY   96  58  27 E9        29.93F HX  95
6HR MIN TEMP:  92; 6HR MAX TEMP:  99;

Dallas Love    MOSUNNY   97  60  29 E8        29.94S HX  97
6HR MIN TEMP:  92; 6HR MAX TEMP:  99;

Philladelphia  PTCLDY    80  49  33 CALM      30.05R
6HR MIN TEMP:  80; 6HR MAX TEMP:  85;

Wash National  MOCLDY    78  48  34 SW5       30.07S
6HR MIN TEMP:  78; 6HR MAX TEMP:  84;

Baltimore      MOCLDY    76  54  46 SE6       30.06R
6HR MIN TEMP:  76; 6HR MAX TEMP:  84;

Miami          MOCLDY    84  74  71 W5        30.00S HX  91
6HR MIN TEMP:  80; 6HR MAX TEMP:  89; 6HR PCP:  0.01;

Detroit        CLOUDY    66  54  65 NW7       30.10R
6HR MIN TEMP:  66; 6HR MAX TEMP:  73; 6HR PCP: TRACE;

Newark         PTCLDY    78  47  33 NE7       30.05R
6HR MIN TEMP:  77; 6HR MAX TEMP:  82;

Laguardia      PTCLDY    76  46  34 E8        30.05R
6HR MIN TEMP:  75; 6HR MAX TEMP:  80;

J F K          PTCLDY    75  48  38 NE6       30.06R
6HR MIN TEMP:  75; 6HR MAX TEMP:  81;

Boston Logan   PTCLDY    65  58  78 SE3       30.06R
6HR MIN TEMP:  65; 6HR MAX TEMP:  73;

Ft. Lauderdale CLOUDY    84  73  69 W3        29.99S HX  90
6HR MIN TEMP:  79; 6HR MAX TEMP:  85;

Chicago O'Hare CLOUDY    78  60  53 S9        29.95S
6HR MIN TEMP:  74; 6HR MAX TEMP:  79; 6HR PCP: TRACE;

Chicago Midway MOCLDY    79  60  52 S9G22     29.96S
6HR MIN TEMP:  77; 6HR MAX TEMP:  80;

Houston Bush   PTSUNNY   86  73  65 E16       29.92S HX  93
6HR MIN TEMP:  86; 6HR MAX TEMP:  95;

Houston Hobby  PTSUNNY   85  74  69 E15       29.91S HX  92
6HR MIN TEMP:  80; 6HR MAX TEMP:  93; 6HR PCP:  0.02;

Nashville      PTCLDY    85  56  37 SE3       30.03S
6HR MIN TEMP:  83; 6HR MAX TEMP:  87;

Atlanta        PTCLDY    80  65  59 SE6       30.05S
6HR MIN TEMP:  80; 6HR MAX TEMP:  84;

London Heathrw   N/A     73  50  43 NE3       29.86S


NYZ176-178-MAZ106-OHZ011-021-055-MIZ076-KYZ091-ILZ014-INZ047-
MNZ060-ONZ431-140100-

...Gateway Observations for Savannah International...

CITY           SKY/WX    TMP DP  RH WIND       PRES   REMARKS
Savannah Arpt  MOCLDY    80  70  71 SE9       30.02R
6HR MIN TEMP:  80; 6HR MAX TEMP:  88;

Atlanta        PTCLDY    80  65  59 SE6       30.05S
6HR MIN TEMP:  80; 6HR MAX TEMP:  84;

Charlotte      PTCLDY    77  55  46 N6        30.06S
6HR MIN TEMP:  77; 6HR MAX TEMP:  85;

Dallas DFW     MOSUNNY   96  58  27 E9        29.93F HX  95
6HR MIN TEMP:  92; 6HR MAX TEMP:  99;

Houston Bush   PTSUNNY   86  73  65 E16       29.92S HX  93
6HR MIN TEMP:  86; 6HR MAX TEMP:  95;

Wash National  MOCLDY    78  48  34 SW5       30.07S
6HR MIN TEMP:  78; 6HR MAX TEMP:  84;

Wash Dulles    MOCLDY    74  51  44 W3        30.08R
6HR MIN TEMP:  74; 6HR MAX TEMP:  83;

Baltimore      MOCLDY    76  54  46 SE6       30.06R
6HR MIN TEMP:  76; 6HR MAX TEMP:  84;

Philadelphia   PTCLDY    80  49  33 CALM      30.05R
6HR MIN TEMP:  80; 6HR MAX TEMP:  85;

Newark         PTCLDY    78  47  33 NE7       30.05R
6HR MIN TEMP:  77; 6HR MAX TEMP:  82;

Laguardia      PTCLDY    76  46  34 E8        30.05R
6HR MIN TEMP:  75; 6HR MAX TEMP:  80;

J F K          PTCLDY    75  48  38 NE6       30.06R
6HR MIN TEMP:  75; 6HR MAX TEMP:  81;

Boston         PTCLDY    65  58  78 SE3       30.06R
6HR MIN TEMP:  65; 6HR MAX TEMP:  73;

Pittsburg      CLOUDY    72  46  39 N6        30.10S
6HR MIN TEMP:  72; 6HR MAX TEMP:  78;

Akron          CLOUDY    71  55  56 W5        30.11S
6HR MIN TEMP:  71; 6HR MAX TEMP:  78;

Cleveland      MOCLDY    72  54  53 N6        30.08F
6HR MIN TEMP:  72; 6HR MAX TEMP:  77;

Cincinnati     CLOUDY    76  61  59 CALM      30.05S
6HR MIN TEMP:  75; 6HR MAX TEMP:  81; 6HR PCP: TRACE;

Columbus       MOCLDY    72  58  63 E7        30.07F
6HR MIN TEMP:  72; 6HR MAX TEMP:  78;

Detroit        CLOUDY    66  54  65 NW7       30.10R
6HR MIN TEMP:  66; 6HR MAX TEMP:  73; 6HR PCP: TRACE;

Chicago O'Hare CLOUDY    78  60  53 S9        29.95S
6HR MIN TEMP:  74; 6HR MAX TEMP:  79; 6HR PCP: TRACE;

Minneapolis    CLOUDY    68  57  68 N14G23    30.02S
6HR MIN TEMP:  68; 6HR MAX TEMP:  74;

Indianapolis   CLOUDY    74  59  59 S9        30.02F
6HR MIN TEMP:  74; 6HR MAX TEMP:  79; 6HR PCP: TRACE;

Toronto Canada PTCLDY    73  41  31 SE8       30.07S


NYZ176-178-MAZ016-IL014-TNZ027-NJZ106-GAZ044-MD014-140100-

...Gateway Observations for Charleston International...

CITY           SKY/WX    TMP DP  RH WIND       PRES   REMARKS
Chas Airport   PTCLDY    80  65  59 NE7       30.01R
6HR MIN TEMP:  80; 6HR MAX TEMP:  87;

Seattle        MOSUNNY   74  52  46 SW9       30.18F
6HR MIN TEMP:  67; 6HR MAX TEMP:  75;

Charlotte      PTCLDY    77  55  46 N6        30.06S
6HR MIN TEMP:  77; 6HR MAX TEMP:  85;

Dallas DFW     MOSUNNY   96  58  27 E9        29.93F HX  95
6HR MIN TEMP:  92; 6HR MAX TEMP:  99;

Dallas Love    MOSUNNY   97  60  29 E8        29.94S HX  97
6HR MIN TEMP:  92; 6HR MAX TEMP:  99;

Philladelphia  PTCLDY    80  49  33 CALM      30.05R
6HR MIN TEMP:  80; 6HR MAX TEMP:  85;

Wash National  MOCLDY    78  48  34 SW5       30.07S
6HR MIN TEMP:  78; 6HR MAX TEMP:  84;

Baltimore      MOCLDY    76  54  46 SE6       30.06R
6HR MIN TEMP:  76; 6HR MAX TEMP:  84;

Miami          MOCLDY    84  74  71 W5        30.00S HX  91
6HR MIN TEMP:  80; 6HR MAX TEMP:  89; 6HR PCP:  0.01;

Detroit        CLOUDY    66  54  65 NW7       30.10R
6HR MIN TEMP:  66; 6HR MAX TEMP:  73; 6HR PCP: TRACE;

Newark         PTCLDY    78  47  33 NE7       30.05R
6HR MIN TEMP:  77; 6HR MAX TEMP:  82;

Laguardia      PTCLDY    76  46  34 E8        30.05R
6HR MIN TEMP:  75; 6HR MAX TEMP:  80;

J F K          PTCLDY    75  48  38 NE6       30.06R
6HR MIN TEMP:  75; 6HR MAX TEMP:  81;

Boston Logan   PTCLDY    65  58  78 SE3       30.06R
6HR MIN TEMP:  65; 6HR MAX TEMP:  73;

Ft. Lauderdale CLOUDY    84  73  69 W3        29.99S HX  90
6HR MIN TEMP:  79; 6HR MAX TEMP:  85;

Chicago O'Hare CLOUDY    78  60  53 S9        29.95S
6HR MIN TEMP:  74; 6HR MAX TEMP:  79; 6HR PCP: TRACE;

Chicago Midway MOCLDY    79  60  52 S9G22     29.96S
6HR MIN TEMP:  77; 6HR MAX TEMP:  80;

Houston Bush   PTSUNNY   86  73  65 E16       29.92S HX  93
6HR MIN TEMP:  86; 6HR MAX TEMP:  95;

Houston Hobby  PTSUNNY   85  74  69 E15       29.91S HX  92
6HR MIN TEMP:  80; 6HR MAX TEMP:  93; 6HR PCP:  0.02;

Nashville      PTCLDY    85  56  37 SE3       30.03S
6HR MIN TEMP:  83; 6HR MAX TEMP:  87;

Atlanta        PTCLDY    80  65  59 SE6       30.05S
6HR MIN TEMP:  80; 6HR MAX TEMP:  84;

London Heathrw   N/A     73  50  43 NE3       29.86S


NYZ176-178-MAZ106-OHZ011-021-055-MIZ076-KYZ091-ILZ014-INZ047-
MNZ060-ONZ431-140100-

...Gateway Observations for Savannah International...

CITY           SKY/WX    TMP DP  RH WIND       PRES   REMARKS
Savannah Arpt  MOCLDY    80  70  71 SE9       30.02R
6HR MIN TEMP:  80; 6HR MAX TEMP:  88;

Atlanta        PTCLDY    80  65  59 SE6       30.05S
6HR MIN TEMP:  80; 6HR MAX TEMP:  84;

Charlotte      PTCLDY    77  55  46 N6        30.06S
6HR MIN TEMP:  77; 6HR MAX TEMP:  85;

Dallas DFW     MOSUNNY   96  58  27 E9        29.93F HX  95
6HR MIN TEMP:  92; 6HR MAX TEMP:  99;

Houston Bush   PTSUNNY   86  73  65 E16       29.92S HX  93
6HR MIN TEMP:  86; 6HR MAX TEMP:  95;

Wash National  MOCLDY    78  48  34 SW5       30.07S
6HR MIN TEMP:  78; 6HR MAX TEMP:  84;

Wash Dulles    MOCLDY    74  51  44 W3        30.08R
6HR MIN TEMP:  74; 6HR MAX TEMP:  83;

Baltimore      MOCLDY    76  54  46 SE6       30.06R
6HR MIN TEMP:  76; 6HR MAX TEMP:  84;

Philadelphia   PTCLDY    80  49  33 CALM      30.05R
6HR MIN TEMP:  80; 6HR MAX TEMP:  85;

Newark         PTCLDY    78  47  33 NE7       30.05R
6HR MIN TEMP:  77; 6HR MAX TEMP:  82;

Laguardia      PTCLDY    76  46  34 E8        30.05R
6HR MIN TEMP:  75; 6HR MAX TEMP:  80;

J F K          PTCLDY    75  48  38 NE6       30.06R
6HR MIN TEMP:  75; 6HR MAX TEMP:  81;

Boston         PTCLDY    65  58  78 SE3       30.06R
6HR MIN TEMP:  65; 6HR MAX TEMP:  73;

Pittsburg      CLOUDY    72  46  39 N6        30.10S
6HR MIN TEMP:  72; 6HR MAX TEMP:  78;

Akron          CLOUDY    71  55  56 W5        30.11S
6HR MIN TEMP:  71; 6HR MAX TEMP:  78;

Cleveland      MOCLDY    72  54  53 N6        30.08F
6HR MIN TEMP:  72; 6HR MAX TEMP:  77;

Cincinnati     CLOUDY    76  61  59 CALM      30.05S
6HR MIN TEMP:  75; 6HR MAX TEMP:  81; 6HR PCP: TRACE;

Columbus       MOCLDY    72  58  63 E7        30.07F
6HR MIN TEMP:  72; 6HR MAX TEMP:  78;

Detroit        CLOUDY    66  54  65 NW7       30.10R
6HR MIN TEMP:  66; 6HR MAX TEMP:  73; 6HR PCP: TRACE;

Chicago O'Hare CLOUDY    78  60  53 S9        29.95S
6HR MIN TEMP:  74; 6HR MAX TEMP:  79; 6HR PCP: TRACE;

Minneapolis    CLOUDY    68  57  68 N14G23    30.02S
6HR MIN TEMP:  68; 6HR MAX TEMP:  74;

Indianapolis   CLOUDY    74  59  59 S9        30.02F
6HR MIN TEMP:  74; 6HR MAX TEMP:  79; 6HR PCP: TRACE;

Toronto Canada PTCLDY    73  41  31 SE8       30.07S